Theta_e
312 312 312 311 312 312 311 312 312 312 312 312 311 310 308 307 303 301 301 304 306 310 314 314 316 320 320 322 323 325 333 332 332 335 333 333 334 326 318 316 317 319 317 318 317 316 317 318 319 322 325 325 325 325 323 321 320 318 318 322 324 322 319 316 316 319 322 324 323 319 319 319 319 320
311 311 311 311 310 310 310 309 312 311 311 310 309 309 309 309 305 304 301 301 306 307 311 312 311 314 316 318 320 322 325 326 333 336 336 333 333 324 317 314 313 314 316 316 312 312 315 318 321 324 325 324 322 321 320 318 318 318 320 323 323 320 319 316 316 318 318 319 319 319 318 318 318 319
310 309 308 309 308 309 309 309 309 310 309 308 308 307 308 308 307 305 303 300 304 307 305 309 311 311 314 314 316 318 319 324 333 336 335 334 328 323 325 316 314 314 314 313 315 316 313 314 317 320 322 323 322 321 320 319 319 320 322 319 319 319 319 318 316 319 321 322 322 322 320 319 319 321
309 308 307 307 306 307 307 307 307 307 307 308 306 306 306 306 307 306 303 301 300 305 305 307 309 311 312 313 313 316 318 323 322 329 334 336 326 330 331 320 314 314 313 313 314 316 314 312 314 317 320 321 322 321 321 320 321 321 317 315 315 316 318 317 316 320 322 323 323 323 320 320 320 321
308 307 306 306 306 306 305 305 306 306 306 306 305 305 305 304 305 304 302 300 300 303 306 306 307 309 311 310 313 312 314 317 321 323 331 336 337 335 334 333 318 313 312 312 312 312 312 311 315 318 320 322 322 321 319 318 316 315 314 313 314 315 317 317 316 318 322 323 323 322 318 318 319 320
306 307 305 305 305 305 304 305 304 304 304 303 302 302 303 302 303 304 302 300 299 299 302 303 306 306 309 307 311 312 312 314 318 323 326 330 335 336 335 333 330 313 313 312 311 312 311 310 312 314 314 316 316 316 314 314 313 313 313 309 312 314 316 317 315 316 319 321 320 319 317 318 319 319
305 305 305 304 304 304 303 304 303 303 301 301 300 300 301 301 301 302 302 300 298 298 299 303 303 305 306 307 308 310 313 314 315 317 323 329 334 335 335 333 331 314 311 310 310 310 310 311 311 311 311 312 313 313 312 312 311 310 310 307 309 312 314 314 314 315 320 320 319 318 317 318 319 318
304 304 303 303 303 303 302 302 301 301 300 299 299 300 300 300 300 300 301 301 299 299 298 301 302 304 304 306 308 309 312 313 314 316 318 329 332 335 335 334 331 321 310 310 309 309 310 310 310 310 310 311 312 312 311 311 310 309 308 308 309 310 311 311 310 312 316 318 317 317 316 318 319 321
304 303 303 302 302 302 301 300 299 299 299 299 299 298 298 298 299 299 300 299 300 299 298 300 302 304 304 306 307 308 308 310 313 315 317 323 325 331 333 335 332 322 311 311 310 309 310 310 309 309 310 310 311 311 311 310 309 309 308 308 308 309 309 311 311 312 313 313 314 317 316 317 320 322
304 303 302 302 302 301 300 299 298 298 298 298 298 298 298 298 298 298 298 299 299 298 298 299 299 302 303 304 305 307 308 308 308 311 313 318 325 327 330 332 332 333 322 317 316 311 310 309 309 309 309 309 309 310 309 309 309 308 308 308 307 308 308 309 310 310 309 312 313 315 315 315 319 322
304 303 302 302 301 300 299 298 298 298 298 297 297 298 298 298 297 296 296 297 297 297 297 297 299 300 302 303 302 305 308 309 309 310 312 314 316 320 326 328 331 333 331 319 312 313 313 313 312 309 308 308 309 309 309 309 308 308 307 306 305 305 306 307 308 310 310 311 312 312 310 310 314 319
303 302 302 302 301 300 299 298 298 298 297 297 297 297 297 297 296 295 296 296 295 296 296 296 297 298 299 301 303 305 306 306 306 309 309 307 309 312 318 325 327 331 331 327 320 313 312 311 311 309 308 309 309 309 309 310 310 309 307 305 305 306 306 306 306 308 309 310 309 308 307 308 311 313
302 302 302 301 301 301 300 300 299 298 297 297 296 296 296 296 295 295 295 295 295 295 295 295 297 297 297 298 299 300 300 301 301 305 307 307 309 312 314 318 325 329 329 328 323 319 317 316 315 314 313 313 311 311 310 312 310 309 307 306 305 306 306 306 307 308 308 309 309 308 307 308 309 309
301 301 301 301 301 302 300 299 297 296 296 297 297 296 296 295 295 295 294 294 295 295 294 294 294 294 295 296 298 298 300 301 303 304 305 304 306 308 309 312 316 326 329 326 322 321 321 318 317 315 314 315 313 314 313 316 313 309 306 305 305 305 305 305 307 307 307 307 308 307 307 306 307 307
300 301 300 301 301 300 299 299 297 295 295 294 294 295 296 296 296 296 294 294 295 294 293 294 294 294 294 296 298 298 299 301 301 301 302 302 302 302 302 302 309 319 327 325 323 321 322 319 316 316 315 315 314 315 316 312 309 308 305 305 305 305 305 305 305 306 305 306 306 306 305 305 306 306
300 300 300 300 300 300 299 299 297 296 295 294 294 294 294 294 295 295 296 295 294 294 294 293 294 294 294 295 297 297 298 299 299 300 300 299 299 300 301 303 305 313 321 319 321 320 321 319 317 316 317 316 315 315 314 309 308 307 305 305 305 304 304 305 305 305 305 305 305 305 305 305 304 304
300 300 299 299 299 299 300 299 296 296 296 295 295 296 296 296 295 293 292 293 297 297 295 294 293 294 294 294 295 297 297 298 296 296 297 298 299 300 301 302 305 311 316 311 314 318 319 318 315 317 318 318 317 315 310 309 307 306 305 305 304 304 304 304 305 305 305 305 305 305 305 305 304 304
300 300 299 298 298 298 299 297 295 295 295 295 297 297 297 297 297 295 295 294 294 296 296 294 293 294 295 293 294 296 297 296 295 295 296 298 298 298 299 302 304 307 310 308 308 312 317 317 317 316 319 319 318 318 313 307 306 306 305 305 304 304 303 304 304 304 304 304 304 304 305 304 303 303
300 300 299 298 297 297 298 296 295 295 294 295 296 296 296 296 296 297 297 297 297 296 295 295 294 295 295 295 295 295 296 296 297 297 297 298 298 299 301 301 303 305 308 310 309 305 316 317 316 316 319 319 318 318 310 306 306 305 305 305 304 303 303 303 303 303 303 303 303 303 303 302 302 302
300 300 299 298 297 297 297 296 292 292 294 295 295 295 295 295 296 297 297 295 294 296 296 296 295 295 295 294 294 295 295 295 296 297 298 299 299 298 298 298 301 303 308 313 313 311 315 318 315 316 319 319 316 318 317 306 306 305 305 304 303 303 303 302 302 302 303 303 303 303 302 301 300 301
300 300 299 298 297 296 296 294 290 291 292 295 295 294 294 295 295 295 296 295 294 293 293 293 292 292 292 292 292 292 293 294 296 297 296 295 298 297 297 298 300 302 308 315 319 316 315 318 316 316 318 318 315 316 317 313 305 305 304 303 303 303 302 302 301 302 302 302 302 302 301 300 300 301
299 300 297 299 297 296 296 293 290 290 293 295 294 294 293 293 293 294 295 295 295 295 294 294 293 293 293 293 293 293 294 294 296 298 294 297 299 298 299 297 300 303 307 313 322 317 315 320 318 316 317 315 315 317 317 314 310 304 304 303 303 303 302 301 301 301 302 302 302 301 301 300 301 306
299 299 300 297 295 296 295 291 291 290 293 295 295 294 293 292 292 293 294 293 294 295 295 296 296 295 295 296 295 296 294 294 297 299 299 300 299 298 298 299 301 301 305 313 323 316 317 318 317 316 313 311 315 318 317 313 312 309 309 307 306 303 302 301 300 301 302 302 301 301 301 300 303 310
299 298 298 298 293 291 291 291 290 290 290 294 296 295 294 293 292 294 294 295 295 295 295 295 296 295 296 295 295 295 295 295 298 298 299 300 299 298 298 299 301 301 304 314 324 318 319 319 316 317 314 311 309 314 317 314 313 310 310 309 308 303 302 301 300 300 301 301 301 301 300 300 305 312
297 297 297 298 295 291 291 291 290 291 290 291 296 296 294 294 293 292 295 296 296 296 296 296 295 295 295 294 294 294 295 295 296 297 297 299 300 299 298 299 300 301 306 312 310 319 316 319 317 316 315 315 314 312 313 312 312 310 310 310 309 307 305 305 304 304 301 300 300 300 300 301 304 310
297 298 297 298 295 291 291 290 290 290 291 290 296 297 290 289 289 295 296 296 296 295 295 295 294 293 293 293 292 293 294 295 295 296 297 298 299 300 302 302 300 300 302 312 304 316 317 316 316 313 312 310 308 311 309 309 311 311 311 311 310 308 306 305 305 305 305 305 304 302 303 301 304 305
296 298 298 297 295 291 290 290 290 290 290 292 295 290 289 290 289 293 296 295 295 294 293 293 292 292 292 292 291 292 293 294 295 296 297 298 300 301 303 305 305 305 306 308 311 313 316 316 314 313 311 311 307 307 307 307 307 310 309 309 309 308 307 307 305 305 305 305 305 301 300 300 303 304
297 298 298 297 292 290 290 290 290 290 291 295 290 290 289 290 292 295 295 294 293 293 292 291 291 290 292 292 292 293 294 294 295 296 296 297 299 301 303 305 305 307 308 310 312 314 315 315 314 314 314 311 308 306 306 308 306 307 306 308 308 307 307 306 306 304 305 305 304 303 304 304 308 306
298 294 291 290 290 290 290 291 291 293 293 291 290 291 291 294 295 295 294 294 293 292 291 291 290 290 291 292 293 295 295 294 296 295 295 297 299 301 304 306 305 306 307 307 308 311 314 315 315 314 312 310 310 309 309 306 306 305 305 303 301 304 305 306 306 305 304 304 303 303 305 306 307 306
291 291 292 291 292 293 294 297 297 296 296 291 291 291 294 296 294 294 294 293 292 292 291 291 290 290 291 292 294 295 295 293 293 293 293 294 295 297 299 300 301 304 306 306 306 308 312 314 315 314 311 309 310 309 308 306 304 306 302 304 303 303 305 305 305 304 303 303 303 303 306 307 307 304
297 296 297 295 292 293 291 292 292 293 294 295 295 296 295 295 295 295 294 293 292 292 291 291 291 291 292 294 294 293 293 292 292 293 293 293 293 294 296 296 295 297 301 303 304 303 309 313 314 314 311 309 309 310 309 308 305 303 302 303 301 299 302 304 304 303 303 303 303 304 306 306 305 304
296 297 294 294 297 297 297 296 296 296 296 295 294 295 295 295 295 295 294 293 293 293 293 293 292 291 292 292 293 293 292 291 292 293 293 292 292 292 293 292 292 294 296 299 302 301 298 301 302 300 301 305 306 307 308 308 306 304 303 302 301 302 303 302 302 303 303 303 303 303 305 304 304 304
295 297 296 295 295 295 292 293 294 294 295 294 294 295 294 295 294 294 293 292 291 292 292 291 291 291 291 292 293 293 292 291 292 293 292 292 292 292 291 290 290 291 291 293 297 301 301 300 297 297 297 295 294 297 303 302 303 304 302 301 301 301 302 302 302 302 303 303 302 302 302 303 304 304
293 295 293 294 293 293 293 292 292 292 293 293 293 293 292 294 293 293 293 292 291 292 291 291 291 290 290 291 292 292 291 292 292 292 291 291 292 290 289 288 289 290 290 291 293 296 300 302 301 300 299 296 295 293 293 297 300 301 302 302 301 300 301 301 301 302 303 303 302 299 299 300 301 302
292 293 292 292 293 293 294 292 292 292 292 292 291 292 293 294 292 291 293 292 292 291 291 291 291 291 291 291 292 291 291 290 292 292 291 292 291 290 289 288 288 288 289 289 290 293 297 299 301 300 298 297 295 294 294 292 296 300 299 300 300 299 299 300 301 302 301 301 301 296 293 293 294 297
293 294 292 292 293 293 293 292 293 292 293 292 292 292 292 292 292 292 291 292 292 292 292 292 291 291 291 291 291 292 291 290 291 291 289 290 289 289 289 288 288 288 288 288 289 291 294 296 297 295 291 290 288 286 287 293 290 293 297 296 298 298 299 299 300 300 300 298 296 294 291 290 291 293
293 294 293 293 295 294 293 293 293 294 294 293 292 293 292 292 293 293 293 293 292 291 292 292 291 290 291 291 291 291 291 290 290 290 289 290 290 290 288 288 288 288 288 288 289 289 291 292 294 293 290 287 285 284 285 287 289 290 294 297 296 298 298 297 297 296 297 296 293 292 290 290 289 291
294 294 294 294 294 295 294 294 294 293 294 293 293 293 293 294 294 293 294 292 291 291 292 292 291 291 292 291 291 291 292 291 291 291 290 289 288 288 288 288 288 288 289 289 289 289 289 289 289 291 289 285 284 283 282 284 285 287 289 294 293 293 295 293 291 290 291 293 292 292 292 289 289 289
295 294 295 294 295 295 294 294 294 294 294 293 293 293 293 294 293 293 292 291 292 291 292 291 291 291 292 292 291 291 291 291 290 290 290 289 289 288 288 288 288 289 288 288 289 289 288 287 286 286 286 284 282 282 283 282 282 285 288 289 292 291 290 290 288 287 287 286 286 288 288 289 289 288
295 295 295 295 295 295 295 295 294 295 294 293 293 294 293 292 293 292 292 290 291 291 291 291 291 292 292 292 292 293 293 292 291 291 290 290 289 289 288 288 288 288 288 287 287 287 287 286 285 285 285 286 286 286 286 286 286 287 286 287 289 289 289 289 287 287 287 287 288 286 285 287 286 289
296 295 295 295 295 295 295 295 294 294 294 294 294 292 293 293 293 291 292 291 290 291 291 291 292 292 292 292 292 292 292 292 292 291 291 291 289 289 288 288 288 288 287 286 287 286 286 287 287 287 288 288 288 290 287 284 283 283 284 285 287 288 289 289 289 288 287 288 288 287 286 286 285 286
296 296 296 296 295 295 295 295 294 294 294 294 294 293 293 292 292 291 292 290 291 291 291 291 291 291 292 293 292 292 292 292 292 291 290 291 290 290 289 289 288 288 287 286 286 287 290 292 290 290 290 288 288 285 283 283 283 284 284 285 286 287 288 288 288 288 288 288 287 286 286 286 286 285
296 296 296 295 295 295 295 295 295 294 294 294 293 293 292 291 291 291 291 291 291 290 291 291 291 291 292 293 293 293 292 292 292 292 291 291 290 290 290 289 289 289 289 289 289 289 290 291 291 289 289 288 287 286 284 285 285 285 285 285 285 286 287 288 289 289 290 290 290 289 289 287 286 283
298 297 296 296 296 295 295 295 295 295 294 294 293 293 292 291 291 290 291 291 291 290 291 291 291 291 291 293 293 293 293 292 293 293 292 291 291 291 291 290 290 290 290 290 290 290 291 290 290 290 288 287 287 287 286 286 285 286 286 286 286 286 286 287 288 288 288 288 289 290 290 289 289 289
298 297 296 296 296 295 295 295 295 295 295 293 293 292 292 292 291 291 291 291 291 291 291 291 291 291 291 292 293 291 292 292 293 293 293 293 293 292 292 292 292 291 291 291 291 290 290 290 291 291 289 288 288 287 287 286 286 286 286 286 285 286 286 286 286 286 286 286 288 289 289 289 288 288
Wind_Speed
8 8 9 8 7 8 8 8 8 9 8 8 8 9 10 10 11 12 13 12 14 15 14 14 15 15 16 15 15 15 11 8 6 5 9 9 9 11 18 20 20 20 21 24 25 26 25 23 23 23 23 23 23 23 22 22 22 20 21 21 20 21 18 18 20 22 23 25 23 21 20 20 19 18
8 8 8 8 7 8 8 8 9 9 9 9 9 9 10 10 11 11 13 14 11 15 14 13 15 17 17 15 15 15 14 17 12 5 6 8 10 12 12 18 21 22 23 20 18 21 24 25 25 24 23 23 23 24 22 22 22 21 22 22 22 22 20 17 20 22 22 22 21 20 20 19 19 18
8 9 9 9 9 9 9 9 9 9 9 10 10 10 10 10 11 12 12 15 11 12 15 15 15 16 19 17 16 15 15 15 9 7 7 10 14 17 15 17 19 23 21 21 25 26 26 27 26 25 25 23 23 24 23 22 23 23 23 22 22 22 22 18 20 22 22 22 21 21 20 19 20 19
8 9 9 9 9 9 9 9 10 10 10 10 11 11 11 11 11 11 12 14 17 13 14 15 17 18 16 18 18 17 15 14 15 11 8 10 12 9 9 15 20 23 22 23 25 26 26 25 26 26 25 24 24 24 25 23 24 25 24 23 23 22 22 19 20 23 23 22 21 22 21 20 20 19
8 9 9 9 10 10 10 10 10 10 11 11 11 11 11 11 11 12 13 15 17 14 13 13 15 17 18 16 16 18 16 16 14 14 11 10 9 9 8 10 16 22 22 25 25 26 25 24 24 25 25 25 24 25 25 25 24 24 24 24 23 23 23 20 20 23 24 23 22 21 20 20 20 19
8 9 10 10 10 10 11 11 11 11 12 12 12 12 12 12 12 12 13 14 15 18 16 15 14 16 17 17 15 16 17 18 16 16 14 12 11 8 8 9 9 21 23 25 25 26 24 23 25 25 25 25 25 24 24 25 24 24 23 24 24 24 23 21 21 23 23 22 21 21 20 21 21 20
9 9 9 10 10 9 12 12 11 11 12 12 12 13 12 13 13 13 13 14 15 18 17 16 16 15 15 16 18 18 15 17 17 18 15 11 7 7 8 7 9 18 24 24 24 25 24 26 26 24 24 25 25 24 25 25 25 24 23 23 24 24 23 22 21 23 25 23 20 21 21 21 21 20
9 10 9 10 11 12 12 11 10 11 11 12 12 13 12 13 14 13 13 13 15 15 17 16 16 15 16 16 17 16 16 16 16 15 15 13 12 9 8 7 9 11 21 23 24 23 25 25 24 24 24 24 24 24 24 25 25 25 25 24 24 24 23 21 21 23 24 25 21 21 22 22 23 22
9 10 10 11 12 12 12 12 12 13 15 13 13 14 14 14 13 12 13 14 14 16 17 17 15 16 16 15 16 16 16 16 16 15 14 12 13 12 11 6 6 11 18 22 24 24 25 24 24 24 24 24 24 24 24 25 25 26 25 25 25 25 24 22 22 23 24 24 23 22 23 23 23 22
9 10 11 11 12 12 12 12 13 14 16 15 15 16 15 15 14 14 15 14 14 16 16 17 17 15 16 16 14 16 16 16 16 16 15 14 11 12 10 7 6 6 5 7 13 19 20 23 25 24 23 23 25 24 25 25 26 26 27 27 25 25 25 24 22 23 23 24 24 22 23 23 23 23
10 11 11 11 11 12 12 14 15 15 16 14 17 17 16 15 15 15 14 14 15 15 16 16 15 16 15 15 17 16 16 17 15 15 15 14 12 11 13 10 6 6 7 13 20 16 15 18 18 21 23 25 25 25 25 26 27 27 27 26 26 26 25 24 23 23 23 23 23 22 22 22 22 22
10 10 11 11 12 12 13 14 14 15 13 15 17 16 16 16 15 15 14 14 14 14 15 15 16 15 16 14 15 16 16 15 14 12 13 15 15 14 11 11 11 6 7 7 9 14 16 17 20 23 23 25 25 26 25 28 27 28 27 27 27 26 26 26 24 24 23 23 23 22 22 22 22 22
10 10 10 11 12 12 10 10 8 9 12 14 16 17 16 16 15 15 14 14 14 14 15 15 15 15 15 14 15 16 15 15 16 16 16 15 15 14 14 12 11 11 7 7 6 7 8 8 8 9 13 15 22 21 26 23 28 28 27 28 27 27 27 26 25 25 24 23 23 22 22 22 21 21
10 11 11 11 15 9 10 13 10 14 16 16 15 16 16 16 16 16 16 15 14 15 15 15 16 17 16 15 16 16 17 17 17 17 16 16 15 15 15 15 11 10 7 8 10 11 11 10 8 9 10 12 17 14 17 17 21 25 28 29 28 27 27 26 25 25 24 24 23 23 22 22 22 21
10 11 11 11 13 14 15 16 16 16 17 17 16 17 18 17 15 15 15 15 15 15 15 15 15 16 18 18 17 16 17 16 16 15 15 15 15 15 15 16 14 10 9 11 11 11 9 12 11 11 10 12 11 15 17 24 27 28 28 28 28 28 28 25 24 24 25 24 23 23 23 23 22 22
10 10 11 11 11 12 16 16 15 17 18 18 18 18 17 16 14 12 12 15 15 15 15 17 16 16 17 17 16 16 16 17 17 16 16 16 16 17 15 13 13 11 11 13 12 12 6 10 13 8 11 15 14 19 20 25 27 28 29 29 29 27 27 28 24 24 23 24 23 23 22 23 22 22
10 10 10 12 12 12 17 15 16 17 18 18 19 17 18 18 19 18 16 15 14 12 14 15 16 15 16 17 16 16 18 18 19 17 16 15 15 15 16 15 14 14 8 12 15 12 6 8 11 12 13 12 13 17 21 26 28 29 28 28 28 27 26 26 27 25 25 24 24 23 23 22 22 22
9 10 11 12 13 14 14 13 17 17 17 17 17 17 17 18 20 20 19 16 17 16 15 15 16 17 17 17 17 19 19 19 17 16 17 16 16 17 18 19 19 18 13 10 11 14 6 9 8 10 9 10 12 13 20 24 26 32 34 34 30 30 29 29 28 28 26 25 24 24 24 23 22 21
10 10 10 12 12 12 13 12 16 16 17 18 16 17 18 18 18 18 17 17 16 15 14 16 18 20 20 19 19 18 18 19 17 16 17 18 17 18 19 19 19 19 15 13 11 14 9 6 9 10 9 9 11 11 17 25 26 28 32 33 32 31 29 27 27 26 25 25 24 23 23 23 23 21
9 9 9 10 11 12 12 16 20 17 15 17 17 18 18 19 17 16 15 14 14 15 15 15 18 18 19 21 20 19 16 15 15 16 15 14 13 13 15 16 15 14 13 11 11 11 10 8 10 9 8 8 10 11 11 22 27 28 28 31 30 30 29 28 27 27 26 25 25 24 23 22 22 22
9 7 8 9 11 12 14 18 20 20 16 15 17 18 19 18 18 18 17 19 18 17 18 20 21 21 21 21 22 23 24 18 15 11 12 13 12 13 13 15 14 15 12 10 11 11 11 7 9 7 7 9 9 10 11 13 23 29 27 26 28 27 27 28 27 27 27 27 26 24 24 23 21 21
10 8 13 13 12 15 16 19 19 20 16 14 16 18 18 19 20 19 19 17 15 20 20 20 19 19 20 22 21 20 19 18 15 10 14 15 12 11 11 13 14 13 12 12 8 10 11 6 8 8 5 7 8 10 10 12 17 24 23 29 30 29 29 28 28 27 27 27 25 25 24 23 21 15
9 10 5 12 15 15 16 20 20 20 16 13 13 16 16 16 17 17 18 18 19 21 21 20 20 17 19 18 17 16 19 18 17 12 13 11 9 10 11 11 12 12 13 12 11 11 8 7 6 7 5 8 7 9 10 12 13 15 14 17 21 30 30 28 28 28 28 27 26 25 24 24 21 13
10 9 10 10 15 17 17 19 21 19 18 12 12 16 14 12 13 13 14 14 14 16 18 17 15 15 15 14 13 12 13 13 14 12 12 12 10 10 11 12 11 11 11 9 6 10 7 9 6 7 7 5 5 8 10 12 14 14 15 13 13 22 25 25 23 26 26 26 26 26 27 27 22 14
10 11 11 12 14 16 16 17 20 20 18 15 11 14 11 10 12 15 12 16 20 16 14 14 15 14 14 13 12 11 11 11 11 11 12 12 10 11 12 11 11 12 13 12 11 9 8 6 7 5 8 7 3 6 7 10 11 13 14 15 15 13 14 15 14 15 20 26 27 27 26 28 26 19
10 11 11 12 13 16 17 17 18 20 17 17 10 12 13 16 16 13 16 18 18 16 13 14 15 15 15 15 14 13 12 12 12 12 12 12 11 11 11 11 11 11 14 11 9 10 11 8 7 6 3 2 4 5 9 8 11 12 13 12 14 14 16 14 13 13 13 13 16 20 23 27 26 23
10 10 12 13 13 16 17 17 17 18 17 12 13 15 16 16 16 15 15 16 17 17 16 14 16 15 16 15 15 14 14 14 14 13 13 14 13 11 10 10 11 12 14 13 15 10 9 6 4 7 6 3 3 1 3 8 8 9 11 12 12 13 15 14 15 13 12 12 12 20 22 26 25 21
10 11 13 13 16 17 18 17 16 14 12 10 16 14 16 18 15 16 18 17 15 14 15 16 16 16 15 15 14 14 14 14 14 13 13 13 13 11 9 8 8 7 9 8 7 8 7 7 3 5 5 6 5 8 6 2 2 10 14 9 9 11 11 13 13 13 13 13 13 15 12 9 13 9
10 12 16 17 16 15 15 16 14 16 16 13 13 16 18 18 14 16 18 18 17 15 14 15 15 16 16 15 14 15 15 15 13 12 13 13 12 11 8 6 6 6 5 7 7 7 7 6 5 3 4 4 7 6 6 8 10 8 8 12 9 10 12 13 13 14 14 13 14 15 15 10 8 9
13 13 16 15 12 14 13 11 14 12 14 11 14 15 17 15 15 15 17 17 17 14 13 15 15 15 16 16 15 14 13 13 13 14 13 13 13 14 10 8 7 6 5 6 7 6 5 5 5 3 3 5 5 4 3 5 4 7 11 14 10 8 8 12 13 13 15 15 13 13 12 13 11 11
11 15 13 8 10 8 13 13 13 14 15 14 14 14 15 15 15 16 16 15 14 12 13 14 14 15 15 14 15 14 14 14 13 14 13 12 12 13 11 8 8 9 10 11 11 10 7 4 3 2 6 6 5 4 6 6 6 7 5 5 14 16 12 10 12 13 14 14 14 13 12 11 9 10
14 15 11 10 10 12 11 12 11 12 14 15 14 13 14 14 14 15 16 14 11 12 12 12 13 14 15 16 15 14 14 13 13 14 13 13 12 12 12 11 13 11 11 12 11 13 12 10 9 11 11 7 4 3 4 3 7 9 11 10 5 4 11 16 14 12 14 16 14 13 12 11 10 9
13 11 9 11 11 11 10 13 12 13 13 14 15 15 15 14 14 15 15 14 14 13 13 14 14 15 15 15 14 14 14 14 13 14 12 12 12 12 11 10 11 12 12 13 11 9 9 11 12 12 11 12 14 12 4 5 5 4 7 10 10 10 6 5 12 14 15 16 15 13 11 8 9 9
10 9 8 9 9 11 11 11 11 13 13 12 14 14 14 14 14 14 14 15 14 12 12 13 14 14 14 15 15 15 15 14 13 14 14 12 12 11 13 12 12 11 12 11 10 11 7 6 6 9 12 14 16 18 15 10 5 6 6 5 8 11 10 11 10 12 12 14 17 15 12 9 5 7
10 7 8 8 8 9 11 10 10 11 11 11 9 10 13 15 13 12 14 14 12 11 11 12 12 13 12 14 14 14 14 14 14 14 13 11 13 12 13 13 12 14 13 13 12 10 10 8 5 5 8 8 11 12 22 19 9 7 8 7 5 8 10 11 14 11 10 13 15 15 12 11 10 9
8 7 8 8 8 10 9 9 11 10 10 11 12 11 12 13 11 13 13 13 14 13 13 12 13 13 12 13 14 13 13 13 13 15 15 14 12 12 12 13 13 13 13 13 12 10 9 8 7 7 9 7 10 11 11 18 24 11 7 9 7 8 8 10 13 11 12 13 14 15 14 13 9 8
8 7 8 10 10 10 9 11 11 12 12 12 11 12 12 13 12 14 15 14 14 12 12 11 13 12 10 11 12 13 12 14 14 14 14 14 12 12 12 13 13 12 13 13 12 11 9 10 9 7 9 11 11 10 9 8 22 27 8 10 10 8 10 12 13 11 10 13 13 15 14 13 11 9
7 9 9 10 10 10 10 11 11 9 11 12 12 12 13 13 13 14 15 15 14 12 11 11 13 12 11 11 12 13 13 13 14 14 14 14 14 14 13 13 13 13 12 12 12 12 12 12 12 9 10 11 9 9 11 11 12 18 29 11 10 9 10 14 13 11 11 11 14 14 15 14 11 9
8 9 9 9 10 10 10 11 11 10 12 12 12 12 13 13 13 14 13 13 15 14 13 12 13 12 12 14 11 12 12 12 14 15 14 14 14 13 13 13 13 13 13 14 15 16 15 14 14 13 9 10 12 8 7 12 14 14 26 33 12 10 10 14 15 13 13 15 14 14 14 14 16 20
8 8 8 9 9 10 10 10 10 11 11 11 11 12 12 11 13 13 12 12 13 13 13 12 13 12 10 12 10 11 12 12 12 13 13 13 13 13 12 12 12 11 12 15 14 14 14 13 11 9 10 9 8 7 10 12 12 17 19 26 34 18 8 14 15 15 12 12 15 18 15 15 13 8
8 8 8 8 9 9 10 10 10 10 10 11 11 11 12 12 13 12 11 12 11 12 12 12 11 12 10 12 11 12 13 12 11 12 14 13 13 13 15 13 12 11 12 13 13 12 12 11 11 12 10 5 3 8 16 18 15 13 15 21 27 32 30 21 13 12 11 9 15 16 13 10 13 10
7 7 8 8 9 9 9 9 10 10 10 10 11 11 11 11 10 13 10 11 12 10 11 12 12 13 13 12 11 9 11 12 11 10 12 13 13 13 14 12 11 11 11 12 12 11 11 12 11 12 10 9 13 18 14 12 12 11 13 16 16 23 29 32 29 22 13 8 10 14 14 12 11 11
6 7 7 7 8 8 9 9 9 10 9 10 10 11 9 10 10 11 11 12 12 12 12 12 13 13 14 14 13 11 11 11 11 9 9 10 12 12 11 11 11 11 11 11 11 11 11 12 12 13 11 11 12 14 15 12 12 11 11 12 16 13 16 22 27 28 27 25 19 13 7 5 11 11
5 6 6 7 7 8 9 8 9 9 9 9 8 8 8 9 10 10 10 11 11 12 12 12 12 13 13 13 13 13 13 11 10 10 9 8 9 10 10 10 10 10 10 10 10 11 11 12 12 12 14 13 8 11 14 14 13 11 10 12 12 13 12 10 13 18 22 25 25 24 26 24 19 17
5 5 6 6 6 7 8 8 8 8 8 7 7 7 8 8 9 10 9 10 11 11 11 11 12 12 12 12 12 13 11 11 12 10 9 9 8 7 8 10 10 10 10 9 10 10 9 9 11 12 13 12 10 13 13 13 12 12 14 15 13 9 8 11 13 14 12 12 17 22 22 22 22 23
Wind_Direction
356 5 352 353 350 6 352 347 342 336 334 333 330 325 320 321 313 315 312 310 311 308 315 313 311 315 318 321 325 318 311 315 310 203 238 256 265 223 221 218 215 215 211 208 205 201 199 201 201 200 199 197 194 199 195 193 191 191 190 186 188 187 200 195 190 192 195 195 190 186 186 183 186 186
359 0 354 357 358 5 350 349 345 336 337 337 335 327 325 320 315 313 308 307 307 304 313 311 310 315 316 317 311 313 311 301 276 251 213 246 252 255 243 224 217 216 215 208 206 209 203 201 201 201 200 198 195 195 194 192 191 191 191 189 186 187 197 196 189 189 195 197 190 187 186 184 185 186
5 2 360 6 3 1 352 349 348 341 343 342 333 330 324 320 316 314 310 304 303 309 307 308 307 309 311 313 313 306 299 295 276 228 237 239 235 233 237 229 225 220 210 197 205 206 203 202 200 199 199 197 193 194 195 193 191 190 190 189 184 186 195 196 190 188 194 197 191 189 188 185 184 185
6 4 2 10 5 0 351 353 348 346 347 342 338 333 329 324 323 319 312 304 305 309 305 306 306 306 308 310 305 304 304 301 301 284 257 236 232 222 230 231 225 225 210 205 207 209 207 201 199 198 198 197 194 193 193 194 194 190 188 187 184 186 194 194 192 187 192 197 194 191 188 187 186 185
6 6 0 7 7 2 354 356 347 350 347 345 338 334 330 326 326 323 318 310 307 305 306 308 306 309 309 303 306 308 309 305 300 291 285 270 240 228 229 236 223 220 213 209 208 209 203 200 202 201 199 197 196 193 193 193 193 190 188 185 185 186 194 192 193 187 190 196 196 191 186 186 186 186
9 4 1 5 5 4 359 357 353 352 351 345 339 337 333 329 326 325 318 312 307 306 311 307 307 303 306 302 305 304 307 306 301 297 293 281 261 239 230 236 238 216 214 212 209 210 203 198 203 201 199 197 197 194 191 191 189 191 188 187 185 187 192 192 192 188 188 194 193 189 184 185 186 185
8 5 5 5 4 4 359 3 359 355 349 341 337 334 330 326 323 320 318 313 308 307 305 306 305 307 306 304 306 303 302 303 304 302 298 284 262 254 242 236 248 205 210 213 211 208 204 200 199 200 199 198 196 196 193 189 186 189 186 189 187 187 192 192 192 191 187 192 191 187 183 184 185 184
8 4 6 7 5 5 1 3 355 350 344 340 336 332 328 323 320 318 315 310 307 307 304 305 305 307 306 304 302 305 303 302 303 302 299 296 289 269 257 233 245 209 201 210 211 211 207 201 197 197 198 198 195 194 192 190 186 187 186 187 187 187 190 192 191 191 188 189 192 187 183 184 185 185
12 6 9 7 7 3 359 356 354 349 344 341 336 331 327 323 319 316 312 309 306 304 303 304 306 307 303 303 304 306 307 306 304 305 301 302 296 284 273 247 226 236 198 208 210 209 207 203 199 197 197 197 194 193 191 189 187 186 187 186 188 188 188 191 191 192 189 187 189 187 184 184 185 185
10 11 7 8 11 3 360 356 349 346 341 339 335 329 327 323 320 318 313 309 308 305 303 306 307 308 309 310 307 309 307 310 310 306 302 298 295 290 275 261 247 251 168 217 216 210 208 204 199 198 197 197 197 192 190 189 188 186 187 189 188 188 189 190 191 192 190 186 186 186 183 184 184 186
13 10 8 10 12 2 359 352 347 343 340 336 331 329 325 324 322 317 315 314 311 308 306 305 304 306 308 309 309 310 309 305 302 304 311 314 318 315 302 281 253 237 224 203 208 201 200 201 201 200 196 198 198 195 191 190 189 188 187 188 188 189 188 189 191 192 191 188 183 183 182 183 185 186
15 10 8 6 5 359 353 351 343 342 339 334 329 328 325 324 321 317 317 315 311 308 306 304 308 308 308 308 305 307 309 310 308 311 316 311 311 311 302 301 299 270 230 223 211 210 204 206 201 201 200 199 198 196 193 192 191 189 188 189 187 189 188 189 189 190 191 189 184 181 181 183 185 187
14 8 7 1 1 350 348 336 331 341 345 336 328 327 327 324 320 317 315 314 310 308 307 306 305 306 306 306 307 308 310 310 309 310 305 298 302 304 304 304 300 284 252 238 206 195 178 179 198 187 197 202 198 195 193 193 192 191 188 188 188 190 188 190 189 188 189 190 185 181 180 182 184 186
9 4 1 356 356 334 352 345 354 353 341 332 326 326 325 323 318 315 314 313 314 312 310 308 308 305 302 302 303 301 301 302 302 302 304 305 310 310 305 299 291 286 254 245 233 220 195 184 181 171 198 196 194 194 194 194 192 191 188 188 189 188 189 188 190 187 188 190 186 181 180 181 184 184
6 1 360 354 351 353 353 351 5 348 336 330 329 322 311 303 303 312 315 314 314 311 306 306 304 301 301 300 299 298 299 298 299 299 305 306 305 304 305 302 300 288 270 250 248 237 200 186 188 193 191 183 180 196 197 194 188 188 188 188 190 189 188 186 191 191 187 187 186 183 181 181 183 183
9 1 359 355 352 359 353 358 358 345 337 335 330 317 308 310 309 306 309 310 308 306 305 305 302 301 298 299 301 300 298 298 302 303 301 297 296 294 291 287 285 301 314 290 257 244 198 189 203 195 198 198 196 198 198 194 188 187 187 187 189 188 187 185 189 192 187 186 186 183 183 182 183 182
6 5 359 357 359 357 357 5 354 346 340 338 330 324 333 332 330 322 311 301 295 298 306 306 303 301 303 301 297 297 296 298 295 297 290 289 288 287 287 284 291 290 329 323 292 256 192 184 201 212 206 197 200 202 200 193 190 186 183 188 187 185 187 186 186 192 188 186 184 182 183 182 183 183
11 8 0 355 359 0 360 4 352 344 341 339 336 342 341 336 332 330 325 320 321 322 314 308 303 302 302 297 297 295 293 291 289 290 289 290 286 285 282 287 288 289 297 283 288 287 247 191 200 219 210 193 200 199 199 199 197 187 183 185 186 187 187 186 186 188 187 187 184 182 181 181 181 182
9 12 1 357 2 358 3 358 348 339 339 339 340 344 341 338 337 332 333 333 329 322 314 308 304 304 303 298 295 293 290 287 286 284 283 282 281 282 283 280 272 275 270 257 253 263 257 190 205 219 209 193 201 199 195 191 194 198 188 185 182 183 184 186 186 186 187 185 185 183 180 179 178 178
356 24 5 5 5 358 357 351 342 335 330 337 344 343 343 341 337 334 332 328 320 310 305 305 305 303 295 290 288 288 282 280 278 277 275 272 270 272 275 274 277 272 271 247 241 249 253 196 204 218 204 192 200 195 194 191 190 194 196 183 180 182 182 184 185 185 185 185 184 180 182 180 176 174
9 58 17 26 16 3 354 342 334 330 331 338 344 346 346 343 340 338 335 329 319 308 304 302 299 297 297 295 292 291 285 276 277 273 276 271 272 272 272 274 274 271 272 256 230 240 249 196 200 211 202 197 196 195 191 186 193 189 190 183 181 182 182 183 184 185 184 184 182 181 178 175 173 167
5 84 83 41 27 10 353 334 328 329 333 334 338 349 346 343 344 340 337 329 323 320 317 314 310 309 308 309 306 300 297 298 296 283 285 289 287 274 268 274 275 276 272 266 238 234 240 204 194 204 201 193 202 194 190 180 188 189 190 188 180 182 184 184 184 184 184 182 180 178 173 169 160 157
2 354 66 70 36 11 340 329 326 326 328 326 321 343 342 337 335 333 328 325 324 330 331 331 328 319 317 317 316 312 306 300 297 289 286 290 286 284 278 271 274 277 269 257 226 236 233 219 204 193 184 214 203 192 184 180 181 186 187 191 186 183 184 184 184 183 182 179 176 172 167 161 158 162
346 352 350 1 32 359 336 324 320 320 320 317 308 336 343 332 318 315 311 310 317 322 331 324 319 316 314 315 311 313 314 311 307 301 294 292 287 277 277 274 272 269 272 288 219 218 237 219 215 194 209 191 207 195 185 177 179 183 184 181 188 189 183 176 184 186 180 175 172 169 164 164 166 164
344 345 353 340 8 344 324 317 314 313 314 309 297 333 337 318 298 307 313 328 336 329 324 322 326 323 321 321 318 316 318 313 313 307 296 289 281 279 279 272 269 266 269 274 266 238 234 201 218 188 209 216 203 157 185 172 179 178 184 180 183 172 177 180 181 179 185 173 169 166 168 168 171 170
349 342 342 342 351 331 315 309 307 307 312 305 294 332 308 294 301 317 334 340 342 340 330 330 331 329 328 327 328 322 322 324 319 314 306 297 288 277 268 268 269 274 264 277 281 243 232 223 202 202 184 184 337 215 161 179 181 179 176 180 179 172 173 172 174 173 176 178 170 168 170 173 174 175
342 336 339 342 336 312 307 303 298 303 307 303 334 317 301 299 295 322 347 345 344 344 339 333 335 331 332 331 329 330 334 329 324 319 316 308 301 286 276 264 257 254 263 271 278 284 263 232 170 194 202 177 136 328 218 158 170 164 173 176 179 170 173 168 170 168 163 163 163 164 169 176 176 177
332 336 333 319 309 300 299 301 290 304 316 326 322 314 305 310 319 344 346 350 344 336 336 338 335 333 329 330 331 334 333 327 323 322 319 313 302 297 290 285 281 299 301 287 286 281 284 268 215 204 198 181 170 177 180 7 19 174 170 161 160 162 164 167 163 158 159 157 154 161 165 176 172 151
329 307 301 296 287 283 304 314 328 340 333 331 337 333 329 327 350 346 346 347 348 340 338 337 333 331 331 327 327 330 331 327 323 330 331 327 323 317 308 304 305 304 305 323 315 303 288 280 258 209 183 169 182 190 180 191 167 170 159 143 147 170 166 164 161 158 157 154 157 160 167 164 147 145
299 308 303 300 314 327 333 336 350 336 329 329 352 342 341 344 348 352 347 347 344 345 337 337 335 331 328 329 331 331 333 340 340 338 337 336 343 340 337 347 342 342 337 339 342 325 305 290 289 197 166 161 167 163 172 139 159 168 165 173 156 119 152 158 157 155 152 155 153 154 155 165 156 145
333 315 292 335 313 316 323 335 332 345 338 349 352 354 349 346 349 350 352 349 342 340 339 335 335 331 328 323 334 344 347 345 343 341 340 342 347 344 342 346 356 358 4 11 18 4 2 346 334 236 185 153 144 154 153 150 147 140 152 140 150 167 170 158 150 151 154 145 143 143 151 152 148 148
322 308 335 343 348 348 351 352 350 347 357 356 353 353 351 346 346 344 344 345 343 341 338 335 331 334 336 339 340 343 347 349 346 346 345 349 347 351 349 0 12 1 3 8 16 22 29 25 43 51 44 42 70 85 97 135 166 161 155 156 138 42 149 160 150 148 147 138 136 146 147 145 145 145
312 305 342 345 348 354 359 348 355 354 349 354 355 355 352 345 351 350 345 348 349 345 339 341 341 337 338 336 342 345 349 354 353 353 347 352 353 353 3 12 11 10 7 7 4 16 31 45 54 58 66 58 49 34 28 94 81 108 149 149 146 134 134 121 137 140 146 135 135 133 128 130 128 134
301 319 349 340 352 349 359 351 351 352 353 349 356 1 350 347 353 348 348 348 345 346 340 338 340 341 339 342 347 351 351 350 356 356 356 356 357 5 9 10 13 9 12 4 2 358 358 18 41 66 70 69 64 51 33 23 65 97 101 129 141 144 139 137 124 133 141 141 133 125 124 111 90 91
303 323 347 342 348 349 355 349 356 353 350 351 350 354 350 356 355 350 350 348 343 345 342 341 342 340 342 347 347 350 353 352 355 359 0 2 6 14 15 18 12 13 11 9 3 348 354 357 350 44 51 50 57 49 45 31 10 54 73 71 101 118 133 135 128 122 127 130 121 115 99 86 89 95
306 347 349 345 346 347 355 349 353 353 351 347 355 354 350 351 354 352 353 342 347 347 342 343 344 343 345 352 351 353 356 356 1 4 3 5 6 10 18 22 18 15 15 11 2 347 348 5 2 39 65 51 61 44 18 16 28 10 71 91 72 89 98 105 106 113 124 112 111 114 109 109 92 88
342 340 349 345 345 350 352 353 351 350 346 351 348 352 350 350 354 354 350 343 349 343 336 345 346 339 342 353 354 357 1 5 7 9 10 5 7 10 18 23 24 19 18 16 13 8 357 12 14 33 67 64 64 65 40 341 22 23 20 95 90 83 98 96 92 92 94 102 102 100 107 105 102 101
339 340 354 347 349 351 351 350 348 347 349 349 349 353 350 347 354 355 350 351 347 344 341 353 347 340 348 354 360 360 4 10 9 14 14 11 11 13 17 21 22 21 18 20 19 22 25 28 21 20 55 64 67 51 53 23 30 16 24 30 93 94 89 96 87 88 82 84 96 102 103 98 97 90
345 344 347 347 349 350 351 351 348 349 349 350 351 355 350 350 353 354 353 354 349 346 348 355 349 343 358 356 3 3 6 11 16 16 16 17 14 12 16 20 25 19 21 24 27 28 30 34 35 34 32 57 64 68 76 76 45 36 35 31 41 89 84 95 92 85 90 86 80 81 77 87 91 98
345 338 347 346 350 349 352 351 349 351 349 352 350 355 350 352 354 353 352 355 352 346 348 354 349 339 5 357 2 8 9 16 25 23 22 22 20 19 20 25 25 22 29 31 32 31 31 31 22 24 45 59 80 76 88 82 72 52 46 38 37 45 73 104 99 105 95 99 107 101 107 113 106 98
342 342 350 349 349 349 352 352 349 349 349 353 351 353 352 351 353 351 348 356 351 350 350 355 354 346 3 5 4 13 12 12 27 31 26 24 25 24 22 20 28 19 26 31 32 34 34 31 34 39 45 53 105 92 60 57 52 48 50 49 45 49 52 55 78 89 91 111 107 110 110 100 110 101
339 343 345 350 348 349 352 352 349 349 350 354 351 351 352 349 353 341 342 357 354 350 351 358 358 359 359 12 4 14 16 12 16 35 33 27 23 24 24 25 28 23 25 31 28 35 34 36 39 45 50 52 60 70 67 64 69 59 59 56 55 50 54 59 61 61 62 70 108 114 109 105 103 103
339 344 345 349 347 350 351 349 352 351 350 353 350 349 351 348 352 349 353 354 356 355 354 357 359 1 357 11 9 13 20 13 16 25 43 39 31 25 24 23 26 29 36 42 44 42 42 38 38 46 44 49 57 69 71 70 68 67 62 61 58 54 55 54 58 62 64 64 62 64 57 112 138 125
336 340 343 347 346 351 349 345 352 349 349 356 346 349 351 349 351 349 352 353 355 354 353 356 358 1 358 6 13 9 27 17 18 20 30 40 44 35 32 28 26 28 30 39 41 43 44 45 44 42 53 48 36 59 68 68 64 60 66 65 61 61 57 57 60 58 56 53 57 60 65 66 64 74
332 334 339 343 341 348 344 342 348 346 349 352 347 349 349 349 350 347 351 353 353 350 353 356 357 1 360 359 11 11 11 24 22 26 26 32 35 43 43 36 34 34 34 29 39 41 42 49 48 49 55 54 46 59 62 62 66 69 66 65 62 54 51 59 67 65 59 53 55 70 77 82 87 90